Lid_Strength_Index
-0 -0 0 1 1 1 1 2 2 3 3 4 4 5 4 3 3 4 4 4 3 3 3 3 2 2 3 5 5 3 1 3 4 4 5 6 6 7 9 8 8 9 9 8 9 9 9
-0 -0 0 1 1 1 1 2 2 3 3 4 4 5 4 4 4 4 4 4 4 4 3 2 2 2 4 7 4 5 6 5 5 5 5 5 6 6 8 8 8 8 9 10 9 10 10
-1 0 0 1 1 1 2 2 3 3 4 4 4 5 5 4 4 4 4 4 4 4 3 2 2 4 5 6 3 5 5 5 5 5 6 5 5 6 7 8 8 8 10 10 9 10 10
-1 -0 0 1 1 2 2 3 3 3 4 4 4 5 5 4 4 4 4 4 4 3 3 3 2 3 6 3 4 5 5 5 5 5 5 5 5 6 7 7 9 10 10 12 10 9 10
-1 -0 1 0 2 2 2 3 3 3 4 5 5 5 5 4 4 4 4 4 4 3 2 3 3 4 7 4 6 6 6 6 6 6 5 5 5 8 8 9 10 11 13 13 12 10 10
-1 1 0 1 2 2 2 3 3 4 4 5 5 5 5 4 4 4 4 4 3 4 5 5 6 6 6 8 7 6 6 6 6 7 7 7 8 9 10 10 13 13 13 13 13 11 10
-1 0 0 1 1 2 2 3 3 4 4 5 5 5 5 4 4 4 5 5 5 5 6 8 7 8 8 7 7 6 7 7 6 8 10 9 10 11 11 11 11 12 13 13 11 10 11
-0 1 0 1 1 2 2 3 4 4 4 5 6 5 5 4 4 4 4 7 7 6 8 7 7 8 7 8 8 8 6 7 8 11 10 10 12 11 11 11 12 12 13 12 11 10 10
0 1 0 1 0 2 2 3 4 4 5 5 6 5 5 4 4 5 5 5 5 5 8 8 8 9 9 8 9 9 8 8 10 10 11 11 11 10 11 12 12 13 14 14 12 11 10
1 2 2 1 0 2 3 3 4 4 5 5 6 5 4 4 5 6 7 6 4 5 11 11 10 9 8 8 9 9 9 8 10 11 11 11 10 11 12 13 13 14 13 13 12 12 13
2 2 3 2 1 3 4 4 4 5 5 6 5 5 5 5 5 7 7 6 3 6 15 10 10 7 8 9 10 9 9 9 12 11 10 12 11 11 13 13 13 13 13 13 12 12 13
2 2 3 1 1 3 4 4 4 5 6 6 5 4 5 6 6 7 6 4 6 11 16 13 10 10 10 10 11 10 10 10 10 11 11 11 10 11 12 12 13 13 13 13 13 13 15
1 1 2 2 2 2 4 5 5 5 6 6 5 4 5 6 8 6 5 7 12 14 11 14 12 11 12 12 12 12 13 13 14 14 14 12 12 12 12 13 12 12 14 16 16 15 16
2 2 2 2 2 2 4 5 6 6 6 7 5 5 5 6 7 6 7 10 14 14 13 12 12 12 13 12 13 12 13 14 13 14 15 15 15 13 12 13 14 14 14 15 19 18 16
2 3 2 2 2 2 3 5 6 6 6 6 6 6 7 6 6 7 10 14 14 13 12 13 13 13 14 13 12 13 14 14 13 13 15 16 16 13 12 12 12 14 14 13 15 16 17
1 2 3 2 3 3 4 5 6 6 6 6 8 8 7 6 7 9 12 14 12 11 12 12 14 13 15 14 14 13 13 13 13 13 13 14 17 15 13 12 12 13 12 15 15 19 20
2 3 3 3 3 4 4 5 6 5 4 6 9 11 7 7 8 12 14 14 11 11 11 12 14 14 14 14 14 14 14 13 12 13 12 13 15 16 14 14 15 13 14 14 14 15 17
4 3 3 3 4 4 4 4 6 5 4 7 9 11 7 8 13 14 14 12 11 12 11 12 12 12 13 13 14 13 13 13 12 12 14 14 15 17 16 13 13 14 14 14 15 17 16
3 3 4 4 4 4 5 5 5 6 5 8 11 11 9 8 14 15 12 11 11 12 12 12 13 11 12 13 14 13 13 11 11 13 14 14 16 18 18 15 13 14 14 14 15 15 17
3 4 4 4 4 4 5 5 5 5 6 8 11 13 13 11 12 12 12 12 13 11 12 12 13 12 12 13 11 13 13 12 11 12 11 12 16 17 18 17 15 16 15 15 15 17 17
4 4 5 5 4 4 5 5 5 5 5 8 11 12 13 16 14 13 12 12 13 13 11 11 13 12 12 13 13 13 13 13 12 11 13 13 16 16 16 16 15 15 15 15 16 15 17
5 5 5 5 4 4 4 6 5 5 6 9 12 13 14 15 13 12 13 12 13 13 13 13 13 12 11 12 11 13 13 13 13 12 13 14 16 15 17 16 16 17 15 15 15 15 15
5 6 6 5 5 4 5 5 6 6 7 9 10 9 10 13 14 13 14 12 12 12 12 12 11 12 12 11 10 11 11 11 11 12 14 14 15 17 19 17 17 18 17 16 15 14 14
6 6 6 6 5 4 5 4 4 6 7 9 10 9 11 15 14 14 13 11 12 11 12 12 11 11 11 10 10 10 11 12 12 13 13 14 15 16 18 18 21 16 14 13 14 14 13
6 6 6 6 6 6 5 5 5 5 5 7 8 8 10 13 12 13 12 12 12 12 12 12 11 11 9 10 12 14 15 14 14 14 13 13 15 18 19 19 17 16 14 14 14 14 12
6 6 6 6 5 5 5 5 5 5 5 8 9 8 8 11 12 11 11 11 12 13 13 13 10 9 9 13 13 16 17 16 17 16 14 14 14 15 19 21 20 16 13 11 11 16 12
7 7 6 6 6 6 5 5 5 6 5 7 8 8 9 13 12 11 12 12 11 12 13 12 12 11 11 14 15 16 16 15 17 17 17 16 16 17 19 18 17 14 12 11 17 15 12
7 7 7 6 6 6 6 6 6 6 6 8 10 9 9 13 13 12 12 12 12 12 13 13 12 12 13 14 14 16 16 15 16 15 16 16 17 17 17 19 20 12 12 14 12 12 11
6 7 7 6 6 6 6 6 6 6 7 7 10 9 9 12 12 10 10 10 11 11 12 13 12 13 12 14 15 15 16 16 16 17 14 16 14 15 15 15 13 11 12 12 11 11 12